| time (UTC) | temp C | wind direction | speed KPH | gust KPH | rain 1hr cm | rain 24hr cm | rain mn cm | humidity % | barometer mb |
| 20260506044232 | 16 | 162 | 1.6 | 0.0 | 0.00 | 0.00 | 0.00 | 74 | |
| 20260506043232 | 16 | 162 | 1.6 | 0.0 | 0.00 | 0.00 | 0.00 | 74 | |
| 20260506042232 | 16 | 195 | 0.0 | 0.0 | 0.00 | 0.00 | 0.00 | 74 | |
| 20260506041232 | 16 | 243 | 4.8 | 0.0 | 0.00 | 0.00 | 0.00 | 73 | |
| 20260506040232 | 16 | 243 | 4.8 | 0.0 | 0.00 | 0.00 | 0.00 | 73 | |
| 20260506035253 | 17 | 236 | 4.8 | 0.0 | 0.00 | 0.00 | 0.00 | 73 | |
| 20260506034232 | 17 | 341 | 4.8 | 0.0 | 0.00 | 0.00 | 0.00 | 72 | |
| 20260506033232 | 17 | 341 | 4.8 | 0.0 | 0.00 | 0.00 | 0.00 | 72 | |
| 20260506032232 | 17 | 282 | 0.0 | 0.0 | 0.00 | 0.00 | 0.00 | 72 | |
| 20260506031232 | 18 | 244 | 1.6 | 0.0 | 0.00 | 0.00 | 0.00 | 71 | |
| 20260506030232 | 18 | 244 | 1.6 | 0.0 | 0.00 | 0.00 | 0.00 | 71 | |
| 20260506025232 | 18 | 70 | 1.6 | 0.0 | 0.00 | 0.00 | 0.00 | 70 | |
| 20260506024232 | 20 | 220 | 6.4 | 0.0 | 0.00 | 0.00 | 0.00 | 69 | |
| 20260506023232 | 20 | 220 | 6.4 | 0.0 | 0.00 | 0.00 | 0.00 | 69 | |
| 20260506022232 | 20 | 178 | 1.6 | 0.0 | 0.00 | 0.00 | 0.00 | 68 | |
| 20260506021232 | 20 | 299 | 0.0 | 0.0 | 0.00 | 0.00 | 0.00 | 67 | |
| 20260506020232 | 20 | 299 | 0.0 | 0.0 | 0.00 | 0.00 | 0.00 | 67 | |
| 20260506015232 | 20 | 231 | 0.0 | 0.0 | 0.00 | 0.00 | 0.00 | 66 | |
| 20260506014232 | 21 | 273 | 1.6 | 0.0 | 0.00 | 0.00 | 0.00 | 64 | |
| 20260506013232 | 21 | 273 | 1.6 | 0.0 | 0.00 | 0.00 | 0.00 | 64 | |
| 20260506012232 | 22 | 257 | 0.0 | 0.0 | 0.00 | 0.00 | 0.00 | 63 | |
| 20260506011253 | 22 | 190 | 0.0 | 0.0 | 0.00 | 0.00 | 0.00 | 61 | |
| 20260506010232 | 22 | 190 | 0.0 | 0.0 | 0.00 | 0.00 | 0.00 | 61 | |
| 20260506005232 | 22 | 259 | 11.3 | 0.0 | 0.00 | 0.00 | 0.00 | 61 | |
| 20260506004232 | 22 | 209 | 1.6 | 0.0 | 0.00 | 0.00 | 0.00 | 60 | |
| 20260506003232 | 22 | 209 | 1.6 | 0.0 | 0.00 | 0.00 | 0.00 | 60 | |
| 20260506002253 | 23 | 156 | 0.0 | 0.0 | 0.00 | 0.00 | 0.00 | 58 | |
| 20260506001232 | 24 | 214 | 0.0 | 0.0 | 0.00 | 0.00 | 0.00 | 57 | |
| 20260506000232 | 24 | 214 | 0.0 | 0.0 | 0.00 | 0.00 | 0.00 | 57 | |
| 20260505235232 | 25 | 178 | 1.6 | 0.0 | 0.00 | 0.00 | 0.00 | 54 | |
| 20260505234233 | 26 | 183 | 8.0 | 0.0 | 0.00 | 0.00 | 0.00 | 52 | |
| 20260505233232 | 26 | 183 | 8.0 | 0.0 | 0.00 | 0.00 | 0.00 | 52 | |
| 20260505232232 | 27 | 174 | 8.0 | 0.0 | 0.00 | 0.00 | 0.00 | 51 | |
| 20260505231232 | 28 | 11 | 1.6 | 0.0 | 0.00 | 0.00 | 0.00 | 46 | |
| 20260505230232 | 28 | 11 | 1.6 | 0.0 | 0.00 | 0.00 | 0.00 | 46 | |
| 20260505225232 | 29 | 184 | 9.7 | 0.0 | 0.00 | 0.00 | 0.00 | 38 | |
| 20260505224232 | 31 | 158 | 1.6 | 0.0 | 0.00 | 0.00 | 0.00 | 35 | |
| 20260505223232 | 31 | 158 | 1.6 | 0.0 | 0.00 | 0.00 | 0.00 | 35 | |
| 20260505222232 | 31 | 168 | 8.0 | 0.0 | 0.00 | 0.00 | 0.00 | 34 | |
| 20260505221232 | 31 | 98 | 8.0 | 0.0 | 0.00 | 0.00 | 0.00 | 38 | |
| 20260505220232 | 31 | 98 | 8.0 | 0.0 | 0.00 | 0.00 | 0.00 | 38 | |
| 20260505215232 | 31 | 113 | 0.0 | 0.0 | 0.00 | 0.00 | 0.00 | 38 | |
| 20260505214253 | 31 | 92 | 3.2 | 0.0 | 0.00 | 0.00 | 0.00 | 40 | |
| 20260505213232 | 31 | 92 | 3.2 | 0.0 | 0.00 | 0.00 | 0.00 | 40 | |
| 20260505212232 | 31 | 101 | 4.8 | 0.0 | 0.00 | 0.00 | 0.00 | 43 | |
| 20260505211232 | 31 | 92 | 4.8 | 0.0 | 0.00 | 0.00 | 0.00 | 44 | |
| 20260505210232 | 31 | 92 | 4.8 | 0.0 | 0.00 | 0.00 | 0.00 | 44 | |
| 20260505205232 | 31 | 118 | 3.2 | 0.0 | 0.00 | 0.00 | 0.00 | 44 | |
| 20260505204253 | 30 | 123 | 4.8 | 0.0 | 0.00 | 0.00 | 0.00 | 45 | |
| 20260505203232 | 30 | 123 | 4.8 | 0.0 | 0.00 | 0.00 | 0.00 | 45 | |
| 20260505202253 | 30 | 65 | 1.6 | 0.0 | 0.00 | 0.00 | 0.00 | 48 | |
| 20260505201232 | 30 | 90 | 6.4 | 0.0 | 0.00 | 0.00 | 0.00 | 48 | |
| 20260505200232 | 30 | 90 | 6.4 | 0.0 | 0.00 | 0.00 | 0.00 | 48 | |
| 20260505195232 | 30 | 93 | 9.7 | 0.0 | 0.00 | 0.00 | 0.00 | 50 | |
| 20260505194232 | 29 | 76 | 14.5 | 0.0 | 0.00 | 0.00 | 0.00 | 50 | |
| 20260505193232 | 29 | 76 | 14.5 | 0.0 | 0.00 | 0.00 | 0.00 | 50 | |
| 20260505192232 | 29 | 59 | 9.7 | 0.0 | 0.00 | 0.00 | 0.00 | 52 | |
| 20260505191232 | 28 | 52 | 12.9 | 0.0 | 0.00 | 0.00 | 0.00 | 55 | |
| 20260505190253 | 28 | 52 | 12.9 | 0.0 | 0.00 | 0.00 | 0.00 | 55 | |
| 20260505185232 | 28 | 64 | 9.7 | 0.0 | 0.00 | 0.00 | 0.00 | 55 | |
| 20260505184232 | 28 | 86 | 14.5 | 0.0 | 0.00 | 0.00 | 0.00 | 53 | |
| 20260505183232 | 28 | 86 | 14.5 | 0.0 | 0.00 | 0.00 | 0.00 | 53 | |
| 20260505182232 | 28 | 85 | 9.7 | 0.0 | 0.00 | 0.00 | 0.00 | 54 | |
| 20260505181232 | 28 | 43 | 11.3 | 0.0 | 0.00 | 0.00 | 0.00 | 57 | |
| 20260505180232 | 28 | 43 | 11.3 | 0.0 | 0.00 | 0.00 | 0.00 | 57 | |
| 20260505175253 | 27 | 72 | 14.5 | 0.0 | 0.00 | 0.00 | 0.00 | 58 | |
| 20260505174232 | 27 | 63 | 9.7 | 0.0 | 0.00 | 0.00 | 0.00 | 59 | |
| 20260505173253 | 27 | 63 | 9.7 | 0.0 | 0.00 | 0.00 | 0.00 | 59 | |
| 20260505172232 | 26 | 69 | 12.9 | 0.0 | 0.00 | 0.00 | 0.00 | 61 | |
| 20260505171232 | 26 | 82 | 11.3 | 0.0 | 0.00 | 0.00 | 0.00 | 63 | |
| 20260505170232 | 26 | 82 | 11.3 | 0.0 | 0.00 | 0.00 | 0.00 | 63 | |
| 20260505165253 | 26 | 72 | 17.7 | 0.0 | 0.00 | 0.00 | 0.00 | 62 | |
| 20260505164232 | 25 | 122 | 8.0 | 0.0 | 0.00 | 0.00 | 0.00 | 66 | |
| 20260505163253 | 25 | 122 | 8.0 | 0.0 | 0.00 | 0.00 | 0.00 | 66 | |
| 20260505162232 | 25 | 79 | 16.1 | 0.0 | 0.00 | 0.00 | 0.00 | 65 | |
| 20260505161232 | 25 | 86 | 12.9 | 0.0 | 0.00 | 0.00 | 0.00 | 67 | |
| 20260505160253 | 25 | 86 | 12.9 | 0.0 | 0.00 | 0.00 | 0.00 | 67 | |
| 20260505153232 | 24 | 81 | 12.9 | 0.0 | 0.00 | 0.00 | 0.00 | 69 | |
| 20260505152232 | 23 | 98 | 9.7 | 0.0 | 0.00 | 0.00 | 0.00 | 72 | |
| 20260505151232 | 23 | 76 | 12.9 | 0.0 | 0.00 | 0.00 | 0.00 | 73 | |
| 20260505150253 | 23 | 76 | 12.9 | 0.0 | 0.00 | 0.00 | 0.00 | 73 | |
| 20260505140232 | 22 | 67 | 16.1 | 0.0 | 0.00 | 0.00 | 0.00 | 77 | |
| 20260505130232 | 21 | 70 | 9.7 | 0.0 | 0.00 | 0.00 | 0.00 | 81 | |
| 20260505124232 | 21 | 87 | 6.4 | 0.0 | 0.00 | 0.00 | 0.00 | 81 | |
| 20260505123232 | 21 | 87 | 6.4 | 0.0 | 0.00 | 0.00 | 0.00 | 81 | |
| 20260505122232 | 21 | 57 | 9.7 | 0.0 | 0.00 | 0.00 | 0.00 | 81 | |
| 20260505121232 | 21 | 72 | 9.7 | 0.0 | 0.00 | 0.00 | 0.00 | 80 | |
| 20260505120232 | 21 | 72 | 9.7 | 0.0 | 0.00 | 0.00 | 0.00 | 80 | |
| 20260505115232 | 21 | 102 | 6.4 | 0.0 | 0.00 | 0.00 | 0.00 | 80 | |
| 20260505114232 | 21 | 80 | 9.7 | 0.0 | 0.00 | 0.00 | 0.00 | 79 | |
| 20260505113232 | 21 | 80 | 9.7 | 0.0 | 0.00 | 0.00 | 0.00 | 79 | |
| 20260505112232 | 21 | 46 | 9.7 | 0.0 | 0.00 | 0.00 | 0.00 | 79 | |
| 20260505111233 | 21 | 89 | 8.0 | 0.0 | 0.00 | 0.00 | 0.00 | 79 | |
| 20260505110232 | 21 | 89 | 8.0 | 0.0 | 0.00 | 0.00 | 0.00 | 79 | |
| 20260505101232 | 21 | 32 | 9.7 | 0.0 | 0.00 | 0.00 | 0.00 | 78 | |
| 20260505100232 | 21 | 32 | 9.7 | 0.0 | 0.00 | 0.00 | 0.00 | 78 | |
| 20260505095232 | 21 | 73 | 9.7 | 0.0 | 0.00 | 0.00 | 0.00 | 78 | |
| 20260505094232 | 21 | 69 | 11.3 | 0.0 | 0.00 | 0.00 | 0.00 | 78 | |
| 20260505093232 | 21 | 69 | 11.3 | 0.0 | 0.00 | 0.00 | 0.00 | 78 | |
| 20260505092232 | 21 | 41 | 12.9 | 0.0 | 0.00 | 0.00 | 0.00 | 78 | |
| 20260505091232 | 21 | 69 | 9.7 | 0.0 | 0.00 | 0.00 | 0.00 | 77 | |
| 20260505090232 | 21 | 69 | 9.7 | 0.0 | 0.00 | 0.00 | 0.00 | 77 | |
| 20260505085232 | 22 | 42 | 16.1 | 0.0 | 0.00 | 0.00 | 0.00 | 77 | |
| 20260505084232 | 22 | 81 | 9.7 | 0.0 | 0.00 | 0.00 | 0.00 | 76 | |
| 20260505083232 | 22 | 81 | 9.7 | 0.0 | 0.00 | 0.00 | 0.00 | 76 | |
| 20260505082253 | 22 | 81 | 16.1 | 0.0 | 0.00 | 0.00 | 0.00 | 76 | |
| 20260505081232 | 22 | 40 | 16.1 | 0.0 | 0.00 | 0.00 | 0.00 | 75 | |
| 20260505080232 | 22 | 40 | 16.1 | 0.0 | 0.00 | 0.00 | 0.00 | 75 | |
| 20260505075232 | 22 | 44 | 11.3 | 0.0 | 0.00 | 0.00 | 0.00 | 74 | |
| 20260505074232 | 22 | 26 | 20.9 | 0.0 | 0.00 | 0.00 | 0.00 | 72 | |
| 20260505073232 | 22 | 26 | 20.9 | 0.0 | 0.00 | 0.00 | 0.00 | 72 | |
| 20260505072232 | 22 | 92 | 16.1 | 0.0 | 0.00 | 0.00 | 0.00 | 71 | |
| 20260505071232 | 22 | 72 | 14.5 | 0.0 | 0.00 | 0.00 | 0.00 | 69 | |
| 20260505070232 | 22 | 72 | 14.5 | 0.0 | 0.00 | 0.00 | 0.00 | 69 | |
| 20260505065232 | 22 | 81 | 11.3 | 0.0 | 0.00 | 0.00 | 0.00 | 69 | |
| 20260505064232 | 22 | 62 | 9.7 | 0.0 | 0.00 | 0.00 | 0.00 | 67 | |
| 20260505063253 | 22 | 62 | 9.7 | 0.0 | 0.00 | 0.00 | 0.00 | 67 | |
| 20260505062232 | 22 | 64 | 8.0 | 0.0 | 0.00 | 0.00 | 0.00 | 67 | |
| 20260505061253 | 23 | 47 | 8.0 | 0.0 | 0.00 | 0.00 | 0.00 | 67 | |
| 20260505060232 | 23 | 47 | 8.0 | 0.0 | 0.00 | 0.00 | 0.00 | 67 | |
| 20260505055253 | 23 | 48 | 16.1 | 0.0 | 0.00 | 0.00 | 0.00 | 66 | |
| 20260505054253 | 23 | 50 | 6.4 | 0.0 | 0.00 | 0.00 | 0.00 | 65 | |
| 20260505053232 | 23 | 50 | 6.4 | 0.0 | 0.00 | 0.00 | 0.00 | 65 | |
| 20260505052253 | 23 | 90 | 4.8 | 0.0 | 0.00 | 0.00 | 0.00 | 64 | |
| 20260505051253 | 23 | 37 | 19.3 | 0.0 | 0.00 | 0.00 | 0.00 | 64 | |
| 20260505050232 | 23 | 37 | 19.3 | 0.0 | 0.00 | 0.00 | 0.00 | 64 |